Regional Weather Roundup
Issued by NWS Sioux Falls, SD

Home | Current Version | Previous Version | Text Only | Print | Product List | Glossary Off
Versions: 1 2 3 4 5 6 7 8 9 10 11 12 13 14 15 16 17 18 19 20 21 22 23 24 25 26 27 28 29 30 31 32 33 34 35 36 37 38 39 40 41 42 43 44 45 46 47 48 49 50

960
ASUS43 KFSD 270610
RWRFSD

WEATHER ROUNDUP FOR SE SOUTH DAKOTA/SW MINNESOTA/NW IOWA
NATIONAL WEATHER SERVICE SIOUX FALLS SD
100 AM CDT SUN MAY 27 2018

NOTE: "FAIR" INDICATES FEW OR NO CLOUDS BELOW 12,000 FEET WITH NO
SIGNIFICANT WEATHER AND OR OBSTRUCTIONS TO VISIBILITY.


SDZ038>040-050-052>070-270700-
SOUTHEAST SOUTH DAKOTA

CITY           SKY/WX    TMP DP  RH WIND       PRES   REMARKS
BROOKINGS      CLEAR     71  54  54 CALM      29.80R
CHAMBERLAIN    CLEAR     74  61  63 SE9       29.74S
6HR MIN TEMP:  74; 6HR MAX TEMP:  92;

HURON          CLEAR     75  57  53 SE9       29.73F
6HR MIN TEMP:  74; 6HR MAX TEMP:  93;

MADISON        FAIR      72  54  53 S5        29.80S
MITCHELL       CLEAR     73  58  59 SE7       29.75S
6HR MIN TEMP:  70; 6HR MAX TEMP:  90;

SIOUX FALLS    CLEAR     67  60  78 CALM      29.79R
6HR MIN TEMP:  65; 6HR MAX TEMP:  90;

WINNER         FAIR      75  62  64 S13       29.75S
YANKTON        CLEAR     73  59  61 E5        29.77S
$$

MNZ071-072-080-081-089-090-097-098-270700-
SOUTHWEST MINNESOTA

CITY           SKY/WX    TMP DP  RH WIND       PRES   REMARKS
FAIRMONT       CLEAR     68  55  63 CALM      29.79S
JACKSON        CLEAR     68  59  73 SW3       29.81S
LUVERNE        CLEAR     68  54  60 CALM      29.80S
MARSHALL       CLEAR     69  60  73 SW6       29.78R
6HR MIN TEMP:  69; 6HR MAX TEMP:  91;

MONTEVIDEO     PTCLDY    70  52  52 SW3       29.76S
PIPESTONE      CLEAR     73  52  46 SE7       29.81S
REDWOOD FALLS  CLEAR     71  59  65 CALM      29.76S
TRACY          CLEAR     73  54  51 SW3       29.78S
WINDOM         CLEAR     70  48  46 CALM      29.79F
WORTHINGTON    CLEAR     70  56  61 CALM      29.82S
$$

IAZ001>003-012>014-020>022-031-032-NEZ013-014-SDZ071-270700-
NORTHWEST IOWA

CITY           SKY/WX    TMP DP  RH WIND       PRES   REMARKS
CHEROKEE       CLEAR     65  61  86 CALM      29.80R
DENISON        CLEAR     68  55  64 CALM      29.80S
ESTHERVILLE    CLEAR     67  60  78 SW3       29.79S
ORANGE CITY    CLEAR     79  52  38 CALM      29.79F
SHELDON        CLEAR     72  52  49 E6        29.79R
SIOUX CITY     CLEAR     75  56  51 E5        29.77S
6HR MIN TEMP:  75; 6HR MAX TEMP:  94;

SPENCER        CLEAR     66  59  78 CALM      29.80S
6HR MIN TEMP:  65; 6HR MAX TEMP:  93;

STORM LAKE     CLEAR     77  50  38 E6        29.80F
$$

ABBREVIATIONS USED IN REMARKS
   TC - TEMPERATURE IN CELSIUS
  WCI - WIND CHILL INDEX
   HX - HEAT INDEX
  VSB - VISIBILITY





USA.gov is the U.S. government's official web portal to all federal, state and local government web resources and services.